Time,TemperatureF,DewpointF,PressureIn,WindDirection,WindDirectionDegrees,WindSpeedMPH,WindSpeedGustMPH,Humidity,HourlyPrecipIn,Conditions,Clouds,dailyrainin,SoftwareType,DateUTC
2013-04-08 00:00:00,43.5,42.4,29.81,ESE,112,5.0,5.0,96,0.04,,,0.00,Wunderground v.1.15,2013-04-08 05:00:00,
2013-04-08 00:05:00,43.5,42.4,29.81,ESE,116,5.0,5.0,96,0.00,,,0.01,Wunderground v.1.15,2013-04-08 05:05:00,
2013-04-08 00:10:00,43.5,42.4,29.81,SE,126,4.0,9.0,96,0.00,,,0.01,Wunderground v.1.15,2013-04-08 05:10:00,
2013-04-08 00:20:00,43.4,42.3,29.80,ESE,117,6.0,10.0,96,0.00,,,0.01,Wunderground v.1.15,2013-04-08 05:20:00,
2013-04-08 00:30:00,43.2,42.1,29.80,East,97,5.0,6.0,96,0.00,,,0.02,Wunderground v.1.15,2013-04-08 05:30:00,
2013-04-08 00:40:00,42.9,41.8,29.80,SE,128,5.0,5.0,96,0.00,,,0.02,Wunderground v.1.15,2013-04-08 05:40:00,
2013-04-08 00:45:00,42.8,41.7,29.80,SE,131,5.0,5.0,96,0.00,,,0.03,Wunderground v.1.15,2013-04-08 05:45:00,
2013-04-08 00:55:00,42.7,41.6,29.80,ESE,107,5.0,5.0,96,0.06,,,0.04,Wunderground v.1.15,2013-04-08 05:55:00,
2013-04-08 01:00:00,42.6,41.5,29.80,SE,131,6.0,6.0,96,0.06,,,0.04,Wunderground v.1.15,2013-04-08 06:00:00,
2013-04-08 01:05:00,42.6,41.5,29.80,East,89,5.0,7.0,96,0.05,,,0.04,Wunderground v.1.15,2013-04-08 06:05:00,
2013-04-08 01:15:00,42.6,41.5,29.79,ESE,108,6.0,8.0,96,0.00,,,0.04,Wunderground v.1.15,2013-04-08 06:15:00,
2013-04-08 01:24:00,42.7,41.6,29.79,SE,127,5.0,5.0,96,0.00,,,0.04,Wunderground v.1.15,2013-04-08 06:24:00,
2013-04-08 01:30:00,42.7,41.6,29.79,East,93,4.0,4.0,96,0.00,,,0.05,Wunderground v.1.15,2013-04-08 06:30:00,
2013-04-08 01:39:00,42.9,42.1,29.78,East,87,3.0,3.0,97,0.09,,,0.07,Wunderground v.1.15,2013-04-08 06:39:00,
2013-04-08 01:45:00,43.0,42.2,29.77,East,91,4.0,4.0,97,0.10,,,0.08,Wunderground v.1.15,2013-04-08 06:45:00,
2013-04-08 01:50:00,43.4,42.6,29.77,ESE,118,5.0,5.0,97,0.10,,,0.08,Wunderground v.1.15,2013-04-08 06:50:00,
2013-04-08 02:05:00,43.4,42.3,29.77,SE,129,7.0,7.0,96,0.00,,,0.08,Wunderground v.1.15,2013-04-08 07:05:00,
2013-04-08 02:15:00,43.2,42.1,29.77,East,83,7.0,8.0,96,0.00,,,0.08,Wunderground v.1.15,2013-04-08 07:15:00,
2013-04-08 02:25:00,43.4,42.3,29.77,ESE,115,5.0,7.0,96,0.00,,,0.08,Wunderground v.1.15,2013-04-08 07:25:00,
2013-04-08 02:30:00,43.5,42.7,29.77,ESE,118,4.0,4.0,97,0.00,,,0.08,Wunderground v.1.15,2013-04-08 07:30:00,
2013-04-08 02:39:00,43.5,42.7,29.78,East,92,3.0,5.0,97,0.00,,,0.08,Wunderground v.1.15,2013-04-08 07:39:00,
2013-04-08 02:45:00,43.3,42.2,29.78,East,88,3.0,5.0,96,0.00,,,0.08,Wunderground v.1.15,2013-04-08 07:45:00,
2013-04-08 02:50:00,43.0,41.9,29.78,East,83,3.0,3.0,96,0.00,,,0.08,Wunderground v.1.15,2013-04-08 07:50:00,
2013-04-08 03:00:00,42.9,41.8,29.78,East,91,2.0,3.0,96,0.00,,,0.08,Wunderground v.1.15,2013-04-08 08:00:00,
2013-04-08 03:05:00,42.9,41.8,29.78,ENE,77,2.0,3.0,96,0.00,,,0.08,Wunderground v.1.15,2013-04-08 08:05:00,
2013-04-08 03:14:00,42.8,42.0,29.78,ENE,74,1.0,1.0,97,0.00,,,0.08,Wunderground v.1.15,2013-04-08 08:14:00,
2013-04-08 03:20:00,42.8,42.0,29.78,NE,54,1.0,1.0,97,0.00,,,0.08,Wunderground v.1.15,2013-04-08 08:20:00,
2013-04-08 03:25:00,42.8,42.0,29.78,ENE,58,1.0,1.0,97,0.00,,,0.08,Wunderground v.1.15,2013-04-08 08:25:00,
2013-04-08 03:30:00,42.7,41.9,29.78,ENE,73,1.0,3.0,97,0.00,,,0.08,Wunderground v.1.15,2013-04-08 08:30:00,
2013-04-08 03:40:00,42.6,41.8,29.77,East,81,2.0,2.0,97,0.00,,,0.08,Wunderground v.1.15,2013-04-08 08:40:00,
2013-04-08 03:49:00,42.6,41.8,29.77,East,81,2.0,2.0,97,0.00,,,0.08,Wunderground v.1.15,2013-04-08 08:49:00,
2013-04-08 03:55:00,42.6,41.8,29.77,ENE,68,1.0,3.0,97,0.00,,,0.08,Wunderground v.1.15,2013-04-08 08:55:00,
2013-04-08 04:00:00,42.5,41.7,29.77,ENE,63,2.0,2.0,97,0.00,,,0.08,Wunderground v.1.15,2013-04-08 09:00:00,
2013-04-08 04:05:00,42.4,41.6,29.77,ENE,74,3.0,3.0,97,0.00,,,0.08,Wunderground v.1.15,2013-04-08 09:05:00,
2013-04-08 04:15:00,42.4,41.6,29.76,ENE,72,3.0,3.0,97,0.00,,,0.08,Wunderground v.1.15,2013-04-08 09:15:00,
2013-04-08 04:20:00,42.4,41.6,29.76,ENE,75,3.0,3.0,97,0.00,,,0.08,Wunderground v.1.15,2013-04-08 09:20:00,
2013-04-08 04:25:00,42.3,41.5,29.76,East,82,3.0,3.0,97,0.00,,,0.08,Wunderground v.1.15,2013-04-08 09:25:00,
2013-04-08 04:35:00,42.3,41.5,29.76,NE,37,2.0,5.0,97,0.00,,,0.08,Wunderground v.1.15,2013-04-08 09:35:00,
2013-04-08 04:40:00,42.2,41.4,29.76,ENE,57,3.0,3.0,97,0.00,,,0.08,Wunderground v.1.15,2013-04-08 09:40:00,
2013-04-08 04:45:00,42.2,41.4,29.75,NE,42,3.0,4.0,97,0.00,,,0.08,Wunderground v.1.15,2013-04-08 09:45:00,
2013-04-08 04:55:00,42.0,41.2,29.76,NE,48,3.0,3.0,97,0.00,,,0.08,Wunderground v.1.15,2013-04-08 09:55:00,
2013-04-08 05:05:00,41.6,40.8,29.75,NNE,33,3.0,3.0,97,0.00,,,0.08,Wunderground v.1.15,2013-04-08 10:05:00,
2013-04-08 05:15:00,41.4,40.6,29.75,NE,51,3.0,5.0,97,0.00,,,0.08,Wunderground v.1.15,2013-04-08 10:15:00,
2013-04-08 05:25:00,41.2,40.4,29.75,NNE,32,3.0,4.0,97,0.00,,,0.08,Wunderground v.1.15,2013-04-08 10:25:00,
2013-04-08 05:35:00,40.9,40.1,29.75,NE,39,3.0,3.0,97,0.00,,,0.08,Wunderground v.1.15,2013-04-08 10:35:00,
2013-04-08 05:40:00,40.7,39.9,29.75,NE,37,3.0,4.0,97,0.00,,,0.08,Wunderground v.1.15,2013-04-08 10:40:00,
2013-04-08 05:50:00,40.5,39.7,29.74,NE,41,4.0,5.0,97,0.00,,,0.08,Wunderground v.1.15,2013-04-08 10:50:00,
2013-04-08 06:00:00,40.5,39.7,29.75,NE,43,3.0,3.0,97,0.00,,,0.08,Wunderground v.1.15,2013-04-08 11:00:00,
2013-04-08 06:05:00,40.4,39.6,29.75,NNE,23,3.0,4.0,97,0.00,,,0.08,Wunderground v.1.15,2013-04-08 11:05:00,
2013-04-08 06:15:00,40.1,39.3,29.75,NNE,19,4.0,7.0,97,0.00,,,0.08,Wunderground v.1.15,2013-04-08 11:15:00,
2013-04-08 06:20:00,39.9,39.1,29.76,NNE,15,6.0,6.0,97,0.00,,,0.08,Wunderground v.1.15,2013-04-08 11:20:00,
2013-04-08 06:30:00,39.6,38.8,29.76,NE,40,6.0,6.0,97,0.00,,,0.08,Wunderground v.1.15,2013-04-08 11:30:00,
2013-04-08 06:40:00,39.2,38.4,29.76,NNE,25,6.0,6.0,97,0.00,,,0.08,Wunderground v.1.15,2013-04-08 11:40:00,
2013-04-08 06:45:00,39.1,38.3,29.76,NNE,31,6.0,7.0,97,0.00,,,0.08,Wunderground v.1.15,2013-04-08 11:45:00,
2013-04-08 06:55:00,38.9,38.4,29.76,North,4,6.0,7.0,98,0.00,,,0.08,Wunderground v.1.15,2013-04-08 11:55:00,
2013-04-08 07:00:00,38.8,38.3,29.77,NNE,21,6.0,6.0,98,0.00,,,0.08,Wunderground v.1.15,2013-04-08 12:00:00,
2013-04-08 07:05:00,38.8,38.3,29.78,NE,36,4.0,6.0,98,0.00,,,0.08,Wunderground v.1.15,2013-04-08 12:05:00,
2013-04-08 07:15:00,38.9,38.4,29.78,NNE,29,3.0,4.0,98,0.00,,,0.08,Wunderground v.1.15,2013-04-08 12:15:00,
2013-04-08 07:20:00,38.9,38.4,29.78,NE,41,3.0,3.0,98,0.00,,,0.08,Wunderground v.1.15,2013-04-08 12:20:00,
2013-04-08 07:30:00,38.8,38.3,29.79,NNE,27,4.0,5.0,98,0.00,,,0.08,Wunderground v.1.15,2013-04-08 12:30:00,
2013-04-08 07:35:00,38.8,38.3,29.79,NE,52,4.0,5.0,98,0.00,,,0.08,Wunderground v.1.15,2013-04-08 12:35:00,
2013-04-08 07:45:00,38.8,38.3,29.79,NE,52,4.0,5.0,98,0.00,,,0.08,Wunderground v.1.15,2013-04-08 12:45:00,
2013-04-08 07:50:00,38.7,38.2,29.80,NE,37,5.0,6.0,98,0.00,,,0.08,Wunderground v.1.15,2013-04-08 12:50:00,
2013-04-08 08:00:00,38.6,38.1,29.80,North,8,6.0,6.0,98,0.00,,,0.08,Wunderground v.1.15,2013-04-08 13:00:00,
2013-04-08 08:05:00,38.6,38.1,29.80,North,4,6.0,8.0,98,0.00,,,0.08,Wunderground v.1.15,2013-04-08 13:05:00,
2013-04-08 08:15:00,38.4,37.9,29.80,NNE,21,6.0,8.0,98,0.00,,,0.08,Wunderground v.1.15,2013-04-08 13:15:00,
2013-04-08 08:25:00,38.3,37.8,29.81,NNE,14,6.0,7.0,98,0.00,,,0.08,Wunderground v.1.15,2013-04-08 13:25:00,
2013-04-08 08:35:00,38.3,37.8,29.81,NNE,18,6.0,7.0,98,0.00,,,0.08,Wunderground v.1.15,2013-04-08 13:35:00,
2013-04-08 08:45:00,38.3,37.8,29.81,NNE,12,7.0,8.0,98,0.00,,,0.08,Wunderground v.1.15,2013-04-08 13:45:00,
2013-04-08 08:50:00,38.4,37.9,29.81,NE,34,6.0,6.0,98,0.00,,,0.08,Wunderground v.1.15,2013-04-08 13:50:00,
2013-04-08 09:00:00,38.1,37.6,29.82,NNE,27,6.0,7.0,98,0.00,,,0.08,Wunderground v.1.15,2013-04-08 14:00:00,
2013-04-08 09:05:00,38.2,37.7,29.82,North,10,6.0,7.0,98,0.00,,,0.08,Wunderground v.1.15,2013-04-08 14:05:00,
2013-04-08 09:15:00,37.9,37.4,29.83,NNE,12,6.0,8.0,98,0.00,,,0.08,Wunderground v.1.15,2013-04-08 14:15:00,
2013-04-08 09:25:00,37.9,37.4,29.83,NNE,24,5.0,6.0,98,0.00,,,0.08,Wunderground v.1.15,2013-04-08 14:25:00,
2013-04-08 09:35:00,37.7,37.2,29.83,NNE,16,7.0,7.0,98,0.00,,,0.08,Wunderground v.1.15,2013-04-08 14:35:00,
2013-04-08 09:45:00,37.6,37.1,29.82,NE,48,7.0,8.0,98,0.00,,,0.08,Wunderground v.1.15,2013-04-08 14:45:00,
2013-04-08 09:55:00,38.0,37.5,29.82,NNE,30,6.0,8.0,98,0.00,,,0.08,Wunderground v.1.15,2013-04-08 14:55:00,
2013-04-08 10:05:00,38.4,37.9,29.81,ENE,64,6.0,7.0,98,0.00,,,0.08,Wunderground v.1.15,2013-04-08 15:05:00,
2013-04-08 10:15:00,38.8,38.3,29.82,NNE,24,6.0,8.0,98,0.00,,,0.08,Wunderground v.1.15,2013-04-08 15:15:00,
2013-04-08 10:25:00,39.0,38.5,29.83,ENE,76,5.0,8.0,98,0.00,,,0.08,Wunderground v.1.15,2013-04-08 15:25:00,
2013-04-08 10:30:00,39.3,38.8,29.83,NE,44,5.0,5.0,98,0.00,,,0.08,Wunderground v.1.15,2013-04-08 15:30:00,
2013-04-08 10:40:00,39.2,38.7,29.83,NE,37,6.0,7.0,98,0.00,,,0.08,Wunderground v.1.15,2013-04-08 15:40:00,
2013-04-08 10:45:00,39.3,38.8,29.83,NE,56,7.0,7.0,98,0.00,,,0.08,Wunderground v.1.15,2013-04-08 15:45:00,
2013-04-08 10:55:00,39.5,39.0,29.83,NNE,29,6.0,8.0,98,0.00,,,0.08,Wunderground v.1.15,2013-04-08 15:55:00,
2013-04-08 11:00:00,39.5,39.0,29.83,NE,35,6.0,6.0,98,0.00,,,0.08,Wunderground v.1.15,2013-04-08 16:00:00,
2013-04-08 11:05:00,39.6,39.1,29.83,ENE,60,6.0,7.0,98,0.00,,,0.08,Wunderground v.1.15,2013-04-08 16:05:00,
2013-04-08 11:15:00,39.8,39.3,29.84,ENE,60,6.0,6.0,98,0.00,,,0.08,Wunderground v.1.15,2013-04-08 16:15:00,
2013-04-08 11:20:00,40.1,39.6,29.84,NNE,32,5.0,6.0,98,0.00,,,0.08,Wunderground v.1.15,2013-04-08 16:20:00,
2013-04-08 11:30:00,40.4,39.9,29.84,NNE,16,5.0,5.0,98,0.00,,,0.08,Wunderground v.1.15,2013-04-08 16:30:00,
2013-04-08 11:35:00,40.6,40.1,29.84,ENE,71,5.0,5.0,98,0.00,,,0.08,Wunderground v.1.15,2013-04-08 16:35:00,
2013-04-08 11:45:00,40.9,40.1,29.85,NNE,29,4.0,6.0,97,0.00,,,0.08,Wunderground v.1.15,2013-04-08 16:45:00,
2013-04-08 11:50:00,41.1,40.3,29.85,NE,46,5.0,5.0,97,0.00,,,0.08,Wunderground v.1.15,2013-04-08 16:50:00,
2013-04-08 12:00:00,41.8,41.0,29.85,NE,55,5.0,5.0,97,0.00,,,0.08,Wunderground v.1.15,2013-04-08 17:00:00,
2013-04-08 12:05:00,41.8,40.7,29.85,NE,56,5.0,5.0,96,0.00,,,0.08,Wunderground v.1.15,2013-04-08 17:05:00,
2013-04-08 12:15:00,41.9,40.6,29.86,North,4,5.0,6.0,95,0.00,,,0.08,Wunderground v.1.15,2013-04-08 17:15:00,
2013-04-08 12:25:00,41.9,40.8,29.87,NNE,16,4.0,5.0,96,0.00,,,0.08,Wunderground v.1.15,2013-04-08 17:25:00,
2013-04-08 12:35:00,41.4,40.1,29.87,NNE,16,4.0,4.0,95,0.00,,,0.08,Wunderground v.1.15,2013-04-08 17:35:00,
2013-04-08 12:40:00,41.4,40.1,29.87,NE,39,4.0,4.0,95,0.00,,,0.08,Wunderground v.1.15,2013-04-08 17:40:00,
2013-04-08 12:45:00,41.4,40.1,29.87,NNE,33,4.0,7.0,95,0.00,,,0.08,Wunderground v.1.15,2013-04-08 17:45:00,
2013-04-08 12:55:00,41.4,40.1,29.87,NNE,32,6.0,6.0,95,0.00,,,0.08,Wunderground v.1.15,2013-04-08 17:55:00,
2013-04-08 13:05:00,41.4,40.1,29.87,NE,35,7.0,7.0,95,0.00,,,0.08,Wunderground v.1.15,2013-04-08 18:05:00,
2013-04-08 13:15:00,41.8,40.5,29.88,North,8,5.0,6.0,95,0.00,,,0.08,Wunderground v.1.15,2013-04-08 18:15:00,
2013-04-08 13:20:00,41.8,40.5,29.88,NE,43,5.0,5.0,95,0.00,,,0.08,Wunderground v.1.15,2013-04-08 18:20:00,
2013-04-08 13:30:00,41.9,40.6,29.88,NNE,14,6.0,6.0,95,0.00,,,0.08,Wunderground v.1.15,2013-04-08 18:30:00,
2013-04-08 13:35:00,42.1,40.8,29.89,NNE,31,6.0,6.0,95,0.00,,,0.08,Wunderground v.1.15,2013-04-08 18:35:00,
2013-04-08 13:45:00,42.5,41.2,29.89,North,359,5.0,6.0,95,0.00,,,0.08,Wunderground v.1.15,2013-04-08 18:45:00,
2013-04-08 13:50:00,42.4,40.8,29.89,North,9,6.0,6.0,94,0.00,,,0.08,Wunderground v.1.15,2013-04-08 18:50:00,
2013-04-08 14:00:00,42.5,40.9,29.90,NNE,27,5.0,5.0,94,0.00,,,0.08,Wunderground v.1.15,2013-04-08 19:00:00,
2013-04-08 14:05:00,42.6,41.0,29.90,NNE,31,4.0,5.0,94,0.00,,,0.08,Wunderground v.1.15,2013-04-08 19:05:00,
2013-04-08 14:15:00,42.4,40.5,29.89,NE,37,5.0,9.0,93,0.00,,,0.08,Wunderground v.1.15,2013-04-08 19:15:00,
2013-04-08 14:25:00,42.6,41.0,29.89,NE,41,5.0,6.0,94,0.00,,,0.08,Wunderground v.1.15,2013-04-08 19:25:00,
2013-04-08 14:35:00,42.5,40.6,29.89,North,8,5.0,5.0,93,0.00,,,0.08,Wunderground v.1.15,2013-04-08 19:35:00,
2013-04-08 14:40:00,42.5,40.6,29.89,NNE,24,6.0,6.0,93,0.00,,,0.08,Wunderground v.1.15,2013-04-08 19:40:00,
2013-04-08 14:50:00,42.9,41.0,29.89,NE,55,6.0,6.0,93,0.00,,,0.08,Wunderground v.1.15,2013-04-08 19:50:00,
2013-04-08 14:55:00,43.1,40.9,29.88,North,4,7.0,9.0,92,0.00,,,0.08,Wunderground v.1.15,2013-04-08 19:55:00,
2013-04-08 15:05:00,43.6,41.4,29.88,NNE,12,7.0,10.0,92,0.00,,,0.08,Wunderground v.1.15,2013-04-08 20:05:00,
2013-04-08 15:15:00,43.4,41.2,29.88,NE,35,7.0,9.0,92,0.00,,,0.08,Wunderground v.1.15,2013-04-08 20:15:00,
2013-04-08 15:20:00,43.2,41.0,29.89,ENE,70,7.0,7.0,92,0.00,,,0.08,Wunderground v.1.15,2013-04-08 20:20:00,
2013-04-08 15:30:00,43.2,41.0,29.89,NE,37,6.0,9.0,92,0.00,,,0.08,Wunderground v.1.15,2013-04-08 20:30:00,
2013-04-08 15:35:00,43.1,40.9,29.89,NE,38,7.0,10.0,92,0.00,,,0.08,Wunderground v.1.15,2013-04-08 20:35:00,
2013-04-08 15:45:00,42.7,40.5,29.90,NNE,28,8.0,9.0,92,0.00,,,0.08,Wunderground v.1.15,2013-04-08 20:45:00,
2013-04-08 15:55:00,43.0,41.1,29.91,North,11,7.0,10.0,93,0.00,,,0.08,Wunderground v.1.15,2013-04-08 20:55:00,
2013-04-08 16:05:00,43.2,41.0,29.91,NNE,29,7.0,11.0,92,0.00,,,0.08,Wunderground v.1.15,2013-04-08 21:05:00,
2013-04-08 16:15:00,43.4,40.9,29.91,NE,36,7.0,11.0,91,0.00,,,0.08,Wunderground v.1.15,2013-04-08 21:15:00,
2013-04-08 16:25:00,43.4,40.7,29.92,North,8,8.0,8.0,90,0.00,,,0.08,Wunderground v.1.15,2013-04-08 21:25:00,
2013-04-08 16:35:00,43.6,40.9,29.93,NE,34,7.0,8.0,90,0.00,,,0.08,Wunderground v.1.15,2013-04-08 21:35:00,
2013-04-08 16:45:00,43.6,40.9,29.93,NNE,25,6.0,6.0,90,0.00,,,0.08,Wunderground v.1.15,2013-04-08 21:45:00,
2013-04-08 16:50:00,43.4,40.7,29.94,NNE,29,6.0,7.0,90,0.00,,,0.08,Wunderground v.1.15,2013-04-08 21:50:00,
2013-04-08 17:00:00,43.2,40.8,29.95,NE,41,6.0,7.0,91,0.00,,,0.08,Wunderground v.1.15,2013-04-08 22:00:00,
2013-04-08 17:05:00,43.1,40.7,29.95,North,10,6.0,7.0,91,0.00,,,0.08,Wunderground v.1.15,2013-04-08 22:05:00,
2013-04-08 17:15:00,43.1,40.7,29.95,NE,43,8.0,10.0,91,0.00,,,0.08,Wunderground v.1.15,2013-04-08 22:15:00,
2013-04-08 17:25:00,43.0,40.8,29.95,North,359,7.0,8.0,92,0.00,,,0.08,Wunderground v.1.15,2013-04-08 22:25:00,
2013-04-08 17:35:00,43.0,40.8,29.96,NE,43,7.0,10.0,92,0.00,,,0.08,Wunderground v.1.15,2013-04-08 22:35:00,
2013-04-08 17:45:00,42.8,40.4,29.96,NNE,21,7.0,9.0,91,0.00,,,0.08,Wunderground v.1.15,2013-04-08 22:45:00,
2013-04-08 17:50:00,42.8,40.4,29.97,NE,43,7.0,7.0,91,0.00,,,0.08,Wunderground v.1.15,2013-04-08 22:50:00,
2013-04-08 18:00:00,42.7,40.3,29.98,NNE,32,7.0,7.0,91,0.00,,,0.08,Wunderground v.1.15,2013-04-08 23:00:00,
2013-04-08 18:05:00,42.5,40.3,29.99,NNE,20,6.0,7.0,92,0.00,,,0.08,Wunderground v.1.15,2013-04-08 23:05:00,
2013-04-08 18:15:00,42.0,39.8,29.98,North,349,9.0,9.0,92,0.00,,,0.08,Wunderground v.1.15,2013-04-08 23:15:00,
2013-04-08 18:25:00,42.0,39.8,29.99,NNE,25,9.0,10.0,92,0.00,,,0.08,Wunderground v.1.15,2013-04-08 23:25:00,
2013-04-08 18:35:00,42.0,39.8,30.00,NE,47,7.0,10.0,92,0.00,,,0.08,Wunderground v.1.15,2013-04-08 23:35:00,
2013-04-08 18:40:00,41.9,39.7,30.00,NNE,21,7.0,7.0,92,0.00,,,0.08,Wunderground v.1.15,2013-04-08 23:40:00,
2013-04-08 18:50:00,41.7,39.5,30.01,NE,46,8.0,8.0,92,0.00,,,0.08,Wunderground v.1.15,2013-04-08 23:50:00,
2013-04-08 18:55:00,41.5,39.3,30.01,NNE,25,8.0,8.0,92,0.00,,,0.08,Wunderground v.1.15,2013-04-08 23:55:00,
2013-04-08 19:05:00,41.2,39.1,30.02,NNE,33,8.0,8.0,92,0.00,,,0.08,Wunderground v.1.15,2013-04-09 00:05:00,
2013-04-08 19:15:00,41.1,39.0,30.03,NNE,30,7.0,8.0,92,0.00,,,0.08,Wunderground v.1.15,2013-04-09 00:15:00,
2013-04-08 19:25:00,41.0,38.9,30.04,NNE,18,7.0,7.0,92,0.00,,,0.08,Wunderground v.1.15,2013-04-09 00:25:00,
2013-04-08 19:35:00,40.9,38.8,30.04,NNE,20,8.0,8.0,92,0.00,,,0.08,Wunderground v.1.15,2013-04-09 00:35:00,
2013-04-08 19:45:00,40.8,38.7,30.05,NE,52,8.0,10.0,92,0.00,,,0.08,Wunderground v.1.15,2013-04-09 00:45:00,
2013-04-08 19:55:00,40.7,38.3,30.05,NNE,29,8.0,8.0,91,0.00,,,0.08,Wunderground v.1.15,2013-04-09 00:55:00,
2013-04-08 20:05:00,40.7,38.3,30.05,ENE,65,8.0,8.0,91,0.00,,,0.08,Wunderground v.1.15,2013-04-09 01:05:00,
2013-04-08 20:15:00,40.6,38.2,30.04,ENE,65,8.0,14.0,91,0.00,,,0.08,Wunderground v.1.15,2013-04-09 01:15:00,
2013-04-08 20:20:00,40.6,38.2,30.05,NE,50,9.0,11.0,91,0.00,,,0.08,Wunderground v.1.15,2013-04-09 01:20:00,
2013-04-08 20:30:00,40.6,38.2,30.05,NE,43,9.0,9.0,91,0.00,,,0.08,Wunderground v.1.15,2013-04-09 01:30:00,
2013-04-08 20:35:00,40.6,38.2,30.05,NE,41,8.0,10.0,91,0.00,,,0.08,Wunderground v.1.15,2013-04-09 01:35:00,
2013-04-08 20:45:00,40.5,38.1,30.05,NE,51,8.0,8.0,91,0.00,,,0.08,Wunderground v.1.15,2013-04-09 01:45:00,
2013-04-08 20:55:00,40.5,37.8,30.06,NE,46,8.0,8.0,90,0.00,,,0.08,Wunderground v.1.15,2013-04-09 01:55:00,
2013-04-08 21:00:00,40.5,37.8,30.05,NE,49,8.0,8.0,90,0.00,,,0.08,Wunderground v.1.15,2013-04-09 02:00:00,
2013-04-08 21:05:00,40.4,38.0,30.05,NE,35,8.0,10.0,91,0.00,,,0.08,Wunderground v.1.15,2013-04-09 02:05:00,
2013-04-08 21:15:00,40.4,38.0,30.05,NE,48,9.0,10.0,91,0.00,,,0.08,Wunderground v.1.15,2013-04-09 02:15:00,
2013-04-08 21:25:00,40.4,37.7,30.07,NE,35,9.0,12.0,90,0.00,,,0.08,Wunderground v.1.15,2013-04-09 02:25:00,
2013-04-08 21:30:00,40.4,37.7,30.07,NNE,32,8.0,9.0,90,0.00,,,0.08,Wunderground v.1.15,2013-04-09 02:30:00,
2013-04-08 21:40:00,40.4,37.7,30.08,NE,48,8.0,8.0,90,0.00,,,0.08,Wunderground v.1.15,2013-04-09 02:40:00,
2013-04-08 21:50:00,40.4,37.7,30.08,NE,55,7.0,7.0,90,0.00,,,0.08,Wunderground v.1.15,2013-04-09 02:50:00,
2013-04-08 22:00:00,40.3,37.6,30.08,NNE,22,7.0,11.0,90,0.00,,,0.08,Wunderground v.1.15,2013-04-09 03:00:00,
2013-04-08 22:05:00,40.3,37.6,30.08,NE,50,8.0,11.0,90,0.00,,,0.08,Wunderground v.1.15,2013-04-09 03:05:00,
2013-04-08 22:15:00,40.2,37.5,30.09,NE,53,7.0,8.0,90,0.00,,,0.08,Wunderground v.1.15,2013-04-09 03:15:00,
2013-04-08 22:20:00,40.2,37.5,30.10,ENE,58,7.0,7.0,90,0.00,,,0.08,Wunderground v.1.15,2013-04-09 03:20:00,
2013-04-08 22:30:00,40.1,37.1,30.11,NNE,31,7.0,7.0,89,0.00,,,0.08,Wunderground v.1.15,2013-04-09 03:30:00,
2013-04-08 22:40:00,40.1,37.1,30.12,NE,45,6.0,8.0,89,0.00,,,0.08,Wunderground v.1.15,2013-04-09 03:40:00,
2013-04-08 22:50:00,40.0,37.0,30.13,NNE,29,6.0,7.0,89,0.00,,,0.08,Wunderground v.1.15,2013-04-09 03:50:00,
2013-04-08 22:55:00,39.9,36.9,30.12,NE,45,7.0,7.0,89,0.00,,,0.08,Wunderground v.1.15,2013-04-09 03:55:00,
2013-04-08 23:00:00,39.8,36.8,30.12,NE,37,7.0,7.0,89,0.00,,,0.08,Wunderground v.1.15,2013-04-09 04:00:00,
2013-04-08 23:05:00,39.7,36.7,30.12,ENE,61,7.0,7.0,89,0.00,,,0.08,Wunderground v.1.15,2013-04-09 04:05:00,
2013-04-08 23:15:00,39.7,36.7,30.11,NNE,13,7.0,10.0,89,0.00,,,0.08,Wunderground v.1.15,2013-04-09 04:15:00,
2013-04-08 23:20:00,39.6,36.6,30.11,NE,43,8.0,9.0,89,0.00,,,0.08,Wunderground v.1.15,2013-04-09 04:20:00,
2013-04-08 23:30:00,39.5,36.5,30.10,NNE,16,8.0,14.0,89,0.00,,,0.08,Wunderground v.1.15,2013-04-09 04:30:00,
2013-04-08 23:40:00,39.3,36.3,30.09,NE,35,11.0,11.0,89,0.00,,,0.08,Wunderground v.1.15,2013-04-09 04:40:00,
2013-04-08 23:50:00,39.3,36.6,30.10,NE,50,11.0,11.0,90,0.00,,,0.08,Wunderground v.1.15,2013-04-09 04:50:00,
2013-04-08 23:55:00,39.3,36.6,30.11,NNE,21,9.0,11.0,90,0.00,,,0.08,Wunderground v.1.15,2013-04-09 04:55:00,